Location: Unspecified
(0.0000°N, 0.0000°E)
Time: 11:28:04
(UTC+00:00)

Cosmos 2058 - Pass Details

Date: 30 April 2019
Orbit: 561 x 585 km, 82.5° (Epoch: 18 May)

Event Time Altitude Azimuth Distance (km) Brightness Sun altitude
Rises 18:49:24 0° 330° (NNW) 2,735 7.1 -12.6°
Reaches altitude 10° 18:52:03 10° 312° (NW) 1,844 6.6 -13.2°
Maximum altitude 18:54:57 19° 266° (W) 1,369 5.8 -13.9°
Drops below altitude 10° 18:57:51 10° 220° (SW) 1,855 5.8 -14.6°
Sets 19:00:33 0° 202° (SSW) 2,758 6.5 -15.3°
